Regional Weather Roundup
Issued by NWS Wilmington, NC

Home | Current Version | Previous Version | Text Only | Print | Product List | Glossary On
Versions: 1 2 3 4 5 6 7 8 9 10 11 12 13 14 15 16 17 18 19 20 21 22 23 24 25 26 27 28 29 30 31 32 33 34 35 36 37 38 39 40 41 42 43 44 45 46 47 48 49 50
145
ASUS42 KILM 241213
RWRILM
RWRILM
REGIONAL HOURLY WEATHER ROUNDUP
NATIONAL WEATHER SERVICE WILMINGTON NC
700 AM EST FRI FEB 24 2017

NOTE: "FAIR" INDICATES FEW OR NO CLOUDS BELOW 12,000 FEET WITH NO
SIGNIFICANT WEATHER AND/OR OBSTRUCTIONS TO VISIBILITY.

...............WFO WILMINGTON COUNTY WARNING AREA...............

......COASTAL NC AND SC COUNTIES......

CITY           SKY/WX    TMP DP  RH WIND       PRES   REMARKS
WILMINGTON     CLOUDY    54  54 100 N3        29.90S
N MYRTLE BEACH CLEAR     56  56 100 NE6       29.89R
MYRTLE BEACH   PTCLDY    57  55  94 N7        29.91R

......INLAND NC AND SC COUNTIES.......

CITY           SKY/WX    TMP DP  RH WIND       PRES   REMARKS
LUMBERTON      PTCLDY    50  50 100 CALM      29.90S
ELIZABETHTOWN  PTCLDY    52  52 100 CALM      29.91S FOG
WHITEVILLE     CLEAR     53  52  97 CALM      29.90S FOG
FLORENCE       PTCLDY    54  54 100 NE5       29.90S
DARLINGTON     PTCLDY    49  48  97 N6        29.91S
KINGSTREE      FAIR      54  52  94 CALM      29.89S
HARTSVILLE     FAIR      54  54 100 NE3       29.91R
BENNETTSVILLE  NOT AVBL
CONWAY         FAIR      50  48  93 CALM      29.89F FOG
GEORGETOWN     FAIR      54  54 100 NE3       29.89S
MARION         FAIR      52  52 100 NE3       29.90S

....................REST OF NORTH CAROLINA......................

.........EASTERN NC.........

CITY           SKY/WX    TMP DP  RH WIND       PRES   REMARKS
CAPE HATTERAS  PTCLDY    62  58  86 N5        29.93S
JACKSONVILLE   MOCLDY    55  55 100 N3        29.92S
MOREHEAD CITY  CLEAR     59  58  96 NE6       29.90S
KENANSVILLE    FOG       48  48 100 CALM      29.92S VSB<1/4
NEW BERN       CLEAR     51  51 100 CALM      29.93R
ELIZABETH CITY CLEAR     55  54  96 SE5       29.95R

.........CENTRAL NC.........

CITY           SKY/WX    TMP DP  RH WIND       PRES   REMARKS
RALEIGH DURHAM PTCLDY    50  48  93 CALM      29.93S
ROCKY MOUNT    FOG       47  47 100 CALM      29.93S VSB 1/4
ROANOKE RAPIDS NOT AVBL
FAYETTEVILLE   PTCLDY    52  51  97 N5        29.91S FOG
HOFFMAN        MOCLDY    45  45 100 CALM      29.91S

.........WESTERN NC.........

CITY           SKY/WX    TMP DP  RH WIND       PRES   REMARKS
CHARLOTTE      PTCLDY    50  48  93 N3        29.93R
GREENSBORO     PTCLDY    50  50 100 CALM      29.92S
HICKORY        NOT AVBL
BOONE          NOT AVBL
ASHEVILLE      NOT AVBL

.....................REST OF SOUTH CAROLINA.....................

.........EASTERN SC.........

CITY           SKY/WX    TMP DP  RH WIND       PRES   REMARKS
CHARLESTON     PTCLDY    57  56  96 N3        29.87R
BEAUFORT MCAS  CLEAR     57  57 100 N3        29.87R
HILTON HEAD    CLEAR     61  61 100 N7        29.87R

.........CENTRAL SC.........

CITY           SKY/WX    TMP DP  RH WIND       PRES   REMARKS
COLUMBIA       CLEAR     50  46  86 CALM      29.90R
ORANGEBURG     CLEAR     53  52  96 CALM      29.90S FOG
SUMTER SHAW    CLEAR     52  51  95 NE6       29.88S

.........WESTERN SC.........

CITY           SKY/WX    TMP DP  RH WIND       PRES   REMARKS
GREENVILLE     NOT AVBL
ROCK HILL      PTCLDY    46  45  96 CALM      29.92S FOG
ANDERSON       CLEAR     49  47  93 CALM      29.92R
CLEMSON        NOT AVBL
GREENWOOD      CLEAR     47  44  90 CALM      29.92S


...................COASTAL AND OFFSHORE REPORTS..................

................LOCAL PIERS AND NC RESERVE................


STATION/POSITION TIME  SKY/WX   TEMP    WIND        PRES    VSBY
                                AIR SEA DIR/SP/G
                 (UTC)          (F)     (DEG/KT/KT) (MB)    (MI)
JOHNY MRCER PIER 1148            61 61   20/  8/  9 1011.1S
NC RESRV MASNBRO 1045            59      30/  1     1011.0
OCEAN CREST PIER NOT AVBL
SPRINGMAID  PIER 1142                               1011.4R


................COASTAL AND OFFSHORE BUOYS................


STATION/POSITION TIME  SKY/WX   TEMP    WIND        PRES    VSBY
                                AIR SEA DIR/SP/G
                 (UTC)          (F)     (DEG/KT/KT) (MB)    (MI)
DIMNDSHOAL 41025 1150            70 73  120/ 16/ 17 1013.0R
WVE H/P(F/S)=  7/ 8 SWL H/P/D(F/S/D)=  5/130/ 8

CAPE LOOKOUT     1100            62      30/  4/  5 1012.3R
ONSLOW BAY 41036 NOT AVBL
ONSLOW BAY 41064 1108            65      40/ 10/ 14 1012.3R
ONSLOW BAY 41159 1143               70                N/A
WVE H/P(F/S)=  8/12 SWL H/P/D(F/S/D)=  3/140/12

MASNBO INL 41110 1159               57                N/A
WVE H/P(F/S)=  6/11 SWL H/P/D(F/S/D)=  3/140/11

WILM HARBR 41108 1147               58                N/A
WVE H/P(F/S)=  6/11 SWL H/P/D(F/S/D)=  3/160/11

27SE WRITB 41037 1108            67 66   60/  8/ 12 1011.3R
FRYING PAN 41013 1150            71 72   70/ 10/ 12 1011.1R
WVE H/P(F/S)=  8/11 SWL H/P/D(F/S/D)=  8/150/11

SUNST NRSH 41024 1108            59 58   40/  6/  8 1011.7R
CAPRS NRSH 41029 1108            61 60   40/ 10/ 14 1010.9R
EDISTO     41004 1050            69 70   30/ 10/ 12 1009.9
WVE H/P(F/S)=  9/10 SWL H/P/D(F/S/D)= 10/120/10



..........OFFSHORE BUOYS BEYOND 100 NM OFFSHORE...........
.....IN A TRIANGLE---HAT TO BERMUDA TO BAHAMAS TO HAT.....


STATION/POSITION TIME  SKY/WX   TEMP    WIND        PRES    VSBY
                                AIR SEA DIR/SP/G
                 (UTC)          (F)     (DEG/KT/KT) (MB)    (MI)
150E HAT   41001 NOT AVBL
W BERMUDA  41048 1150            68 69  110/ 27/ 33 1013.2R
WVE H/P(F/S)= 10/ 7 SWL H/P/D(F/S/D)=  3/ 40/12

ATLANTIC S 41049 1150            71 72  120/ 17/ 19 1019.2R
WVE H/P(F/S)=  9/12 SWL H/P/D(F/S/D)=  7/ 10/12

E BAHAMAS  41046 NOT AVBL
NE BAHAMAS 41047 1150            71 72  190/ 10/ 14 1008.3R
WVE H/P(F/S)= 10/ 9 SWL H/P/D(F/S/D)= 10/130/ 9

120E CANVRL41010 NOT AVBL

END




USA.gov is the U.S. government's official web portal to all federal, state and local government web resources and services.